SV2BBO-2 Thessaloniki GR current weather conditions

sailwx.info

Wind from 107

Air temperature 26.7° C
Dewpoint -0.4° C

Last reported at 2015-Aug-29 22:48 UTC.
Time now 2015-Aug-29 23:34 UTC

Location: N 40°38' E 022°57'.
View on Google Maps.

See reports from other nearby stations

  
Tides and Currents Weather Stations Pressure Air Temp Water Temp Dewpoint Dewpoint Depression Visibility Wind Speed Wind Dir Waves Ship Positions
date/time (UTC)wind fromknots sea level pressurealtimeterstation pressurevisibilityair tempwater tempwave heightnotes
2015-Aug-29 22:48 107 26.7
2015-Aug-29 22:38 107 26.7
2015-Aug-29 22:28 108 26.7
2015-Aug-29 22:18 107 0 gusting 2 26.7
2015-Aug-29 22:08 108 2 gusting 2 26.7
2015-Aug-29 21:58 108 26.7
2015-Aug-29 21:48 107 26.7
2015-Aug-29 21:38 108 1 gusting 2 26.7
2015-Aug-29 21:28 108 27.2
2015-Aug-29 21:18 108 27.8
2015-Aug-29 21:08 107 27.8
2015-Aug-29 20:58 108 27.8
2015-Aug-29 20:48 108 28.3
2015-Aug-29 20:38 107 28.3
2015-Aug-29 20:28 154 28.3
2015-Aug-29 20:18 137 28.3
2015-Aug-29 20:08 137 28.3
2015-Aug-29 19:58 137 28.3
2015-Aug-29 19:48 137 28.3
2015-Aug-29 19:38 137 28.9
2015-Aug-29 19:28 137 28.9
2015-Aug-29 19:18 138 28.9
2015-Aug-29 19:08 137 28.9
2015-Aug-29 18:58 137 0 gusting 3 29.4
2015-Aug-29 18:48 146 29.4
2015-Aug-29 18:38 146 1 gusting 2 29.4
2015-Aug-29 18:28 146 1 gusting 2 29.4
2015-Aug-29 18:18 142 30.0
2015-Aug-29 18:08 142 30.0
2015-Aug-29 17:58 142 30.0
2015-Aug-29 17:48 142 30.0
2015-Aug-29 17:38 149 30.6
2015-Aug-29 17:28 103 0 gusting 3 30.6
2015-Aug-29 17:18 155 2 gusting 4 30.0
2015-Aug-29 17:08 179 1 gusting 2 30.0
2015-Aug-29 16:58 160 2 30.6
2015-Aug-29 16:48 179 4 gusting 5 30.6
2015-Aug-29 16:38 185 3 gusting 5 31.1
2015-Aug-29 16:28 212 4 gusting 4 31.1
2015-Aug-29 16:18 189 5 gusting 7 31.1
2015-Aug-29 16:08 186 3 gusting 5 31.1
2015-Aug-29 15:58 192 4 gusting 4 31.1
2015-Aug-29 15:48 212 3 gusting 3 31.1
2015-Aug-29 15:38 201 3 gusting 5 31.1
2015-Aug-29 15:27 193 3 gusting 3 31.1
2015-Aug-29 15:17 204 4 gusting 6 31.1
2015-Aug-29 15:07 180 5 gusting 6 31.7
2015-Aug-29 14:57 186 4 gusting 5 31.7
2015-Aug-29 14:47 217 4 gusting 5 31.1
2015-Aug-29 14:37 192 4 gusting 5 31.1
2015-Aug-29 14:27 198 3 gusting 5 31.1
2015-Aug-29 14:17 213 5 gusting 6 31.7
2015-Aug-29 14:07 241 5 gusting 5 31.7
2015-Aug-29 13:57 211 4 gusting 6 31.7
2015-Aug-29 13:47 228 6 gusting 6 32.2
2015-Aug-29 13:37 225 4 gusting 6 31.7
2015-Aug-29 13:27 212 6 gusting 6 31.7
2015-Aug-29 13:17 205 6 gusting 6 31.7
2015-Aug-29 13:07 205 4 gusting 4 31.7
2015-Aug-29 12:57 230 4 gusting 5 31.7
2015-Aug-29 12:47 197 3 gusting 5 31.7
2015-Aug-29 12:37 218 4 gusting 6 31.1
2015-Aug-29 12:27 216 3 gusting 5 31.7
2015-Aug-29 12:17 228 5 gusting 6 31.1
2015-Aug-29 12:07 243 5 gusting 5 31.7
2015-Aug-29 11:57 209 4 gusting 6 31.1
2015-Aug-29 11:47 206 2 gusting 5 31.1
2015-Aug-29 11:37 214 4 gusting 4 31.1
2015-Aug-29 11:27 187 3 gusting 2 30.6
2015-Aug-29 11:17 210 3 gusting 6 30.6
2015-Aug-29 11:07 165 4 gusting 5 30.0
2015-Aug-29 10:57 223 5 gusting 5 30.0
2015-Aug-29 10:47 217 5 gusting 5 30.0
2015-Aug-29 10:37 195 4 gusting 6 29.4
2015-Aug-29 10:27 224 3 gusting 5 29.4
2015-Aug-29 10:17 198 3 gusting 5 29.4
2015-Aug-29 10:07 191 3 gusting 3 29.4
2015-Aug-29 09:57 214 3 gusting 4 29.4
2015-Aug-29 09:47 222 4 gusting 4 29.4
2015-Aug-29 09:37 205 3 gusting 4 29.4
2015-Aug-29 09:27 215 3 gusting 3 28.9
2015-Aug-29 09:17 203 2 gusting 3 28.9
2015-Aug-29 09:07 221 3 gusting 4 28.3
2015-Aug-29 08:57 206 2 gusting 3 28.3
2015-Aug-29 08:47 184 3 gusting 4 28.3
2015-Aug-29 08:37 198 3 gusting 4 28.3
2015-Aug-29 08:27 230 2 gusting 3 28.3
2015-Aug-29 08:17 223 2 gusting 4 28.3
2015-Aug-29 08:07 203 3 gusting 4 28.3
2015-Aug-29 07:57 186 2 gusting 3 28.3
2015-Aug-29 07:47 211 3 gusting 3 27.8
2015-Aug-29 07:37 201 2 gusting 5 27.8
2015-Aug-29 07:27 227 3 gusting 3 27.8
2015-Aug-29 07:17 185 2 gusting 3 27.8
2015-Aug-29 07:07 206 3 gusting 4 27.8
2015-Aug-29 06:57 230 4 gusting 3 27.8
2015-Aug-29 06:47 192 2 gusting 3 27.8
2015-Aug-29 06:37 218 2 gusting 3 27.8
2015-Aug-29 06:27 201 2 gusting 3 27.2
2015-Aug-29 06:17 218 3 gusting 4 27.2
2015-Aug-29 06:07 222 3 gusting 4 27.8
2015-Aug-29 05:57 277 27.2
2015-Aug-29 05:47 277 26.1
2015-Aug-29 05:37 100 2 gusting 3 25.0
2015-Aug-29 05:27 100 1 gusting 2 23.9
2015-Aug-29 05:17 110 1 gusting 2 23.9
2015-Aug-29 05:07 096 2 gusting 3 23.9
2015-Aug-29 04:57 167 2 gusting 3 23.9
2015-Aug-29 04:47 116 23.9
2015-Aug-29 04:37 117 0 gusting 2 23.9
2015-Aug-29 04:27 117 23.9
2015-Aug-29 04:17 043 23.9
2015-Aug-29 04:07 028 23.9
2015-Aug-29 03:57 028 1 gusting 2 23.9
2015-Aug-29 03:47 027 23.9
2015-Aug-29 03:37 027 23.3
2015-Aug-29 03:27 027 23.3
2015-Aug-29 03:17 027 23.3
2015-Aug-29 03:07 027 2 gusting 2 23.9
2015-Aug-29 02:57 027 23.9
2015-Aug-29 02:47 027 23.9
2015-Aug-29 02:37 027 23.9
2015-Aug-29 02:27 027 24.4
2015-Aug-29 02:17 027 24.4
2015-Aug-29 02:07 022 1 gusting 2 24.4
2015-Aug-29 01:57 022 24.4
2015-Aug-29 01:47 022 24.4
2015-Aug-29 01:37 022 24.4
2015-Aug-29 01:27 022 24.4
2015-Aug-29 01:17 022 25.0
2015-Aug-29 01:07 022 24.4
2015-Aug-29 00:57 001 24.4
2015-Aug-29 00:47 343 2 gusting 2 25.0
2015-Aug-29 00:37 335 2 gusting 2 25.0
2015-Aug-29 00:27 329 25.0
2015-Aug-29 00:17 329 25.0
2015-Aug-29 00:07 325 2 gusting 2 25.0
2015-Aug-28 23:57 325 25.6
2015-Aug-28 23:47 324 25.6
2015-Aug-28 23:37 324 2 gusting 2 25.6
2015-Aug-28 23:27 324 2 gusting 2 25.6
2015-Aug-28 23:17 324 25.6
2015-Aug-28 23:07 324 25.6
2015-Aug-28 22:57 324 2 gusting 3 25.6
2015-Aug-28 22:47 323 26.1
2015-Aug-28 22:37 323 26.1
2015-Aug-28 22:27 309 26.1
2015-Aug-28 22:17 308 26.1
2015-Aug-28 22:07 297 26.7
2015-Aug-28 21:57 298 27.2
2015-Aug-28 21:47 325 2 gusting 2 26.7
2015-Aug-28 21:37 334 1 gusting 3 26.7
2015-Aug-28 21:27 034 2 gusting 2 26.7
2015-Aug-28 21:17 112 1 gusting 3 26.7
2015-Aug-28 21:07 113 2 gusting 2 27.2
2015-Aug-28 20:57 113 27.2
2015-Aug-28 20:47 112 27.2
2015-Aug-28 20:37 113 27.2
2015-Aug-28 20:27 112 1 gusting 2 27.2
2015-Aug-28 20:17 113 27.2
2015-Aug-28 20:07 113 27.8
2015-Aug-28 19:57 113 1 27.8
2015-Aug-28 19:47 144 3 gusting 3 28.3
2015-Aug-28 19:37 149 28.3
2015-Aug-28 19:27 160 28.3
2015-Aug-28 19:17 094 28.3
2015-Aug-28 19:07 093 28.3
2015-Aug-28 18:57 098 0 gusting 3 28.3
2015-Aug-28 18:47 104 1 28.9
2015-Aug-28 18:37 136 0 gusting 3 28.9
2015-Aug-28 18:27 143 2 gusting 3 28.9
2015-Aug-28 18:17 109 2 gusting 2 29.4
2015-Aug-28 18:07 116 3 gusting 3 29.4
2015-Aug-28 17:57 176 2 gusting 2 29.4
2015-Aug-28 17:47 155 29.4
2015-Aug-28 17:37 155 2 gusting 3 29.4
2015-Aug-28 17:27 183 3 gusting 5 29.4
2015-Aug-28 17:17 192 5 gusting 6 29.4
2015-Aug-28 17:07 215 29.4
2015-Aug-28 16:57 196 2 gusting 3 30.0
2015-Aug-28 16:47 173 3 gusting 6 30.0
2015-Aug-28 16:37 222 4 gusting 4 30.0
2015-Aug-28 16:27 188 3 gusting 5 30.6
2015-Aug-28 16:17 243 2 gusting 2 30.6
2015-Aug-28 16:07 200 4 gusting 5 30.0
2015-Aug-28 15:57 184 0 gusting 4 30.6
2015-Aug-28 15:47 202 4 gusting 4 30.6
2015-Aug-28 15:37 213 3 gusting 5 30.6
2015-Aug-28 15:27 184 3 gusting 4 31.1
2015-Aug-28 15:17 189 3 gusting 5 30.6
2015-Aug-28 15:07 216 5 gusting 6 31.1
2015-Aug-28 14:57 229 5 gusting 6 30.6
2015-Aug-28 14:47 229 5 gusting 6 31.1
2015-Aug-28 14:37 262 3 gusting 3 30.6
2015-Aug-28 14:27 219 3 gusting 5 31.1
2015-Aug-28 14:17 208 4 gusting 5 31.1
2015-Aug-28 14:07 238 4 gusting 5 31.1
2015-Aug-28 13:57 210 5 gusting 5 31.1
2015-Aug-28 13:47 206 5 gusting 5 31.1
2015-Aug-28 13:37 199 5 gusting 6 31.1
2015-Aug-28 13:27 207 4 gusting 4 31.1
2015-Aug-28 13:17 228 5 gusting 6 31.1
2015-Aug-28 13:07 237 5 gusting 7 30.6
2015-Aug-28 12:57 242 4 gusting 4 30.6
2015-Aug-28 12:47 212 5 gusting 6 30.6
2015-Aug-28 12:37 231 4 gusting 5 30.6
2015-Aug-28 12:27 225 5 gusting 6 31.1
2015-Aug-28 12:17 226 5 gusting 6 31.1
2015-Aug-28 12:07 190 5 gusting 5 30.6
2015-Aug-28 11:57 200 4 gusting 5 30.6
2015-Aug-28 11:47 223 4 gusting 6 31.1
2015-Aug-28 11:37 215 4 gusting 5 30.6
2015-Aug-28 11:27 216 4 gusting 5 30.6
2015-Aug-28 11:17 209 4 gusting 5 30.6
2015-Aug-28 11:07 214 4 gusting 6 30.6
2015-Aug-28 10:57 200 3 gusting 4 29.4
2015-Aug-28 10:47 215 4 gusting 5 29.4
2015-Aug-28 10:37 211 5 gusting 6 29.4
2015-Aug-28 10:27 187 3 gusting 5 29.4
2015-Aug-28 10:17 220 3 gusting 5 28.9
2015-Aug-28 10:07 197 3 gusting 3 28.9
2015-Aug-28 09:57 244 3 gusting 5 28.9
2015-Aug-28 09:47 214 4 gusting 5 28.9
2015-Aug-28 09:37 207 3 gusting 5 28.9
2015-Aug-28 09:27 217 3 gusting 3 28.3
2015-Aug-28 09:17 229 2 gusting 4 28.3
2015-Aug-28 09:07 230 3 gusting 3 27.8
2015-Aug-28 08:57 203 2 gusting 3 27.8
2015-Aug-28 08:47 286 2 gusting 3 27.8
2015-Aug-28 08:37 243 0 gusting 3 28.3
2015-Aug-28 08:27 218 3 gusting 3 28.3
2015-Aug-28 08:17 188 2 gusting 3 28.3
2015-Aug-28 08:07 201 0 gusting 4 28.3
2015-Aug-28 07:57 218 1 gusting 3 28.3
2015-Aug-28 07:47 213 4 gusting 3 28.3
2015-Aug-28 07:37 198 3 gusting 3 27.8
2015-Aug-28 07:27 222 3 gusting 3 27.2
2015-Aug-28 07:17 220 3 gusting 4 27.2
2015-Aug-28 07:07 201 3 gusting 4 28.3
2015-Aug-28 06:57 205 2 gusting 3 27.8
2015-Aug-28 06:47 185 2 gusting 3 27.8
2015-Aug-28 06:37 210 3 gusting 4 27.8
2015-Aug-28 06:27 211 3 gusting 3 27.8
2015-Aug-28 06:17 206 2 gusting 4 27.8
2015-Aug-28 06:07 206 2 gusting 4 27.8
2015-Aug-28 05:57 180 27.2
2015-Aug-28 05:47 138 1 26.7
2015-Aug-28 05:37 127 1 gusting 2 26.1
2015-Aug-28 05:27 126 25.0
2015-Aug-28 05:17 102 23.9
2015-Aug-28 05:07 103 23.9
2015-Aug-28 04:57 103 23.9
2015-Aug-28 04:47 103 23.3
2015-Aug-28 04:37 103 1 gusting 2 23.3
2015-Aug-28 04:27 103 23.3
2015-Aug-28 04:17 104 23.3
2015-Aug-28 04:07 103 23.3
2015-Aug-28 03:57 104 1 gusting 2 23.3
2015-Aug-28 03:47 103 23.3
2015-Aug-28 03:37 113 23.3
2015-Aug-28 03:27 113 23.3
2015-Aug-28 03:17 113 23.3
2015-Aug-28 03:07 113 23.9
2015-Aug-28 02:57 113 23.9
2015-Aug-28 02:47 113 23.9
2015-Aug-28 02:37 113 2 gusting 2 23.9
2015-Aug-28 02:27 114 23.9
2015-Aug-28 02:17 113 24.4
2015-Aug-28 02:07 113 24.4
2015-Aug-28 01:57 113 24.4
2015-Aug-28 01:47 113 0 gusting 3 24.4
2015-Aug-28 01:37 113 24.4
2015-Aug-28 01:27 113 24.4
2015-Aug-28 01:17 113 24.4
2015-Aug-28 01:07 113 24.4
2015-Aug-28 00:57 113 24.4
2015-Aug-28 00:47 113 24.4
2015-Aug-28 00:37 113 24.4
2015-Aug-28 00:27 113 25.0
2015-Aug-28 00:17 113 25.0
2015-Aug-28 00:07 113 1 25.0
2015-Aug-27 23:57 113 25.0
2015-Aug-27 23:47 113 25.0
2015-Aug-27 23:37 113 25.0
2015-Aug-27 23:27 113 25.0
2015-Aug-27 23:17 113 25.0
2015-Aug-27 23:07 113 25.0